Washington, VA

1:08 AM EST on December 16, 2019 (GMT -0500)
Ronald Reagan Washington National

Weather History for KDCA - October, 2019

Change the Weather History Date:

Friday, October 11, 2019

  Actual Average Record
Temperature  
Mean Temperature 66 °F 61 °F  
Max Temperature 77 °F 70 °F 90 °F (1919)
Min Temperature 55 °F 52 °F 33 °F (1906)
Degree Days  
Heating Degree Days 0 5  
Month to date heating degree days 7 45  
Since 1 July heating degree days 7 69  
Cooling Degree Days 1 1  
Month to date cooling degree days 65 23  
Year to date cooling degree days 2060 1536  
Growing Degree Days 16 (Base 50)    
Moisture  
Dew Point 43 °F    
Average Humidity 48    
Maximum Humidity 65    
Minimum Humidity 31    
Precipitation  
Precipitation 0.00 in 0.11 in 2.76 in (2013)
Month to date precipitation 0.02 1.21  
Year to date precipitation 31.05 31.33  
Snow  
Snow 0.00 in 0.00 in - ()
Month to date snowfall 0.0 0.0  
Since 1 July snowfall 0.0 0.0  
Snow Depth 0.00 in    
Sea Level Pressure  
Sea Level Pressure 30.12 in    
Wind  
Wind Speed 9 mph (North)    
Max Wind Speed 16 mph    
Max Gust Speed 21 mph    
Visibility 10 miles    
Events      
T = Trace of Precipitation, MM = Missing Value Source: NWS Daily Summary

Daily Weather History Graph

Daily Weather History Graph

Search for Another Location

Airport or City:

Astronomy

Oct. 11, 2019 Rise Set
Actual Time 7:13 AM EDT 6:35 PM EDT
Civil Twilight 6:46 AM EDT 7:02 PM EDT
Nautical Twilight 6:15 AM EDT 7:33 PM EDT
Astronomical Twilight 5:44 AM EDT 8:04 PM EDT
Moon 6:02 PM EDT (10/11) 4:54 AM EDT (10/11)
Length of Visible Light 12h 15m
Length of Day
11h 22m
Waxing Gibbous, 96% of the Moon is Illuminated
Oct 11
Waxing Gibbous
Oct 13
Full
Oct 21
Last Quarter
Oct 27
New
Nov 4
First Quarter

Hourly Weather History & Observations

Time (EDT) Temp. Dew Point Humidity Pressure Visibility Wind Dir Wind Speed Gust Speed Precip Events Conditions
12:52 AM 64.0 °F 48.9 °F 58% 30.16 in 10.0 mi NE 8.1 mph - N/A   Clear
1:52 AM 62.1 °F 45.0 °F 53% 30.16 in 10.0 mi NNE 8.1 mph - N/A   Clear
2:52 AM 60.1 °F 44.1 °F 55% 30.16 in 10.0 mi NNW 9.2 mph - N/A   Clear
3:52 AM 57.9 °F 45.0 °F 62% 30.16 in 10.0 mi NNW 9.2 mph - N/A   Clear
4:52 AM 57.9 °F 43.0 °F 58% 30.17 in 10.0 mi NNW 10.4 mph - N/A   Clear
5:52 AM 57.0 °F 41.0 °F 55% 30.16 in 10.0 mi NNW 10.4 mph - N/A   Clear
6:52 AM 55.9 °F 39.9 °F 55% 30.17 in 10.0 mi North 11.5 mph - N/A   Scattered Clouds
7:52 AM 57.0 °F 36.0 °F 45% 30.17 in 10.0 mi North 11.5 mph - N/A   Scattered Clouds
8:52 AM 61.0 °F 34.0 °F 36% 30.18 in 10.0 mi NNE 13.8 mph 20.7 mph N/A   Scattered Clouds
9:52 AM 63.0 °F 33.1 °F 33% 30.18 in 10.0 mi North 11.5 mph - N/A   Scattered Clouds
10:52 AM 66.0 °F 35.1 °F 32% 30.17 in 10.0 mi North 6.9 mph - N/A   Scattered Clouds
11:52 AM 69.1 °F 37.9 °F 32% 30.15 in 10.0 mi North 10.4 mph - N/A   Partly Cloudy
12:52 PM 71.1 °F 41.0 °F 34% 30.12 in 10.0 mi North 8.1 mph - N/A   Partly Cloudy
1:52 PM 75.0 °F 42.1 °F 31% 30.09 in 10.0 mi NNW 8.1 mph 18.4 mph N/A   Partly Cloudy
2:52 PM 75.9 °F 43.0 °F 31% 30.06 in 10.0 mi NNW 13.8 mph - N/A   Partly Cloudy
3:52 PM 75.9 °F 44.1 °F 32% 30.05 in 10.0 mi North 10.4 mph - N/A   Partly Cloudy
4:52 PM 75.0 °F 45.0 °F 34% 30.04 in 10.0 mi NNE 9.2 mph - N/A   Partly Cloudy
5:52 PM 73.0 °F 45.0 °F 37% 30.05 in 10.0 mi North 11.5 mph - N/A   Partly Cloudy
6:52 PM 70.0 °F 46.0 °F 42% 30.05 in 10.0 mi North 11.5 mph - N/A   Partly Cloudy
7:52 PM 69.1 °F 46.9 °F 45% 30.05 in 10.0 mi NNE 8.1 mph - N/A   Clear
9:52 PM 64.9 °F 50.0 °F 58% 30.06 in 10.0 mi ENE 6.9 mph - N/A   Clear
10:52 PM 63.0 °F 50.0 °F 63% 30.08 in 10.0 mi Calm Calm - N/A   Clear
11:52 PM 63.0 °F 50.0 °F 63% 30.06 in 10.0 mi Calm Calm - N/A   Clear